Time,TemperatureF,DewpointF,PressureIn,WindDirection,WindDirectionDegrees,WindSpeedMPH,WindSpeedGustMPH,Humidity,HourlyPrecipIn,Conditions,Clouds,dailyrainin,SoftwareType,DateUTC
2013-09-04 00:01:00,61.6,60.5,29.88,NNW,333,0.0,0.0,96,0.00,,CLR,0.08,VWS V14.01,2013-09-04 04:01:00,
2013-09-04 00:06:00,61.4,60.5,29.88,NNW,333,0.0,0.0,97,0.00,,CLR,0.00,VWS V14.01,2013-09-04 04:06:00,
2013-09-04 00:11:00,61.4,60.5,29.88,NNW,333,0.0,0.0,97,0.00,,CLR,0.00,VWS V14.01,2013-09-04 04:11:00,
2013-09-04 00:16:00,61.3,60.4,29.87,NNW,333,0.0,0.0,97,0.00,,CLR,0.00,VWS V14.01,2013-09-04 04:16:00,
2013-09-04 00:21:00,61.3,60.4,29.87,NNW,333,0.0,0.0,97,0.00,,CLR,0.00,VWS V14.01,2013-09-04 04:21:00,
2013-09-04 00:26:00,61.6,60.7,29.86,NNW,333,0.0,0.0,97,0.00,,CLR,0.00,VWS V14.01,2013-09-04 04:26:00,
2013-09-04 00:31:00,61.6,60.7,29.86,NNW,333,0.0,0.0,97,0.00,,CLR,0.00,VWS V14.01,2013-09-04 04:31:00,
2013-09-04 00:36:00,61.6,60.7,29.86,NNW,333,0.0,0.0,97,0.00,,CLR,0.00,VWS V14.01,2013-09-04 04:36:00,
2013-09-04 00:41:00,61.6,60.7,29.87,NNW,333,0.0,0.0,97,0.00,,CLR,0.00,VWS V14.01,2013-09-04 04:41:00,
2013-09-04 00:46:00,61.6,60.7,29.87,NNW,333,0.0,0.0,97,0.00,,CLR,0.00,VWS V14.01,2013-09-04 04:46:00,
2013-09-04 00:51:00,61.6,60.7,29.87,NNW,333,0.0,0.0,97,0.00,,CLR,0.00,VWS V14.01,2013-09-04 04:51:00,
2013-09-04 00:56:00,61.4,0.0,29.87,North,359,0.0,0.0,100,0.00,,CLR,0.00,VWS V14.01,2013-09-04 04:56:00,
2013-09-04 01:01:00,61.4,0.0,29.87,North,359,0.0,0.0,100,0.00,,CLR,0.00,VWS V14.01,2013-09-04 05:01:00,
2013-09-04 01:06:00,61.4,0.0,29.87,North,359,0.0,0.0,100,0.00,,CLR,0.00,VWS V14.01,2013-09-04 05:06:00,
2013-09-04 01:11:00,61.4,0.0,29.87,North,359,0.0,0.0,100,0.00,,CLR,0.00,VWS V14.01,2013-09-04 05:11:00,
2013-09-04 01:16:00,61.4,0.0,29.87,North,359,0.0,0.0,100,0.00,,CLR,0.00,VWS V14.01,2013-09-04 05:16:00,
2013-09-04 01:21:00,61.4,0.0,29.87,North,359,0.0,0.0,100,0.00,,CLR,0.00,VWS V14.01,2013-09-04 05:21:00,
2013-09-04 01:26:00,61.4,0.0,29.87,North,359,0.0,0.0,100,0.00,,CLR,0.00,VWS V14.01,2013-09-04 05:26:00,
2013-09-04 01:31:00,61.4,0.0,29.88,North,359,0.0,0.0,100,0.00,,CLR,0.00,VWS V14.01,2013-09-04 05:31:00,
2013-09-04 01:36:00,61.4,0.0,29.88,North,359,0.0,0.0,100,0.00,,CLR,0.00,VWS V14.01,2013-09-04 05:36:00,
2013-09-04 01:41:00,61.4,0.0,29.88,North,359,0.0,0.0,100,0.00,,CLR,0.00,VWS V14.01,2013-09-04 05:41:00,
2013-09-04 01:46:00,61.4,0.0,29.88,North,359,0.0,0.0,100,0.00,,CLR,0.00,VWS V14.01,2013-09-04 05:46:00,
2013-09-04 01:51:00,61.4,0.0,29.88,North,0,0.0,0.0,100,0.00,,CLR,0.00,VWS V14.01,2013-09-04 05:51:00,
2013-09-04 01:56:00,61.4,0.0,29.88,North,359,0.0,0.0,100,0.00,,CLR,0.00,VWS V14.01,2013-09-04 05:56:00,
2013-09-04 02:01:00,61.4,0.0,29.87,North,359,0.0,0.0,100,0.00,,CLR,0.00,VWS V14.01,2013-09-04 06:01:00,
2013-09-04 02:06:00,61.4,0.0,29.88,North,0,0.0,0.0,100,0.00,,CLR,0.00,VWS V14.01,2013-09-04 06:06:00,
2013-09-04 02:11:00,61.4,0.0,29.88,North,359,0.0,0.0,100,0.00,,CLR,0.00,VWS V14.01,2013-09-04 06:11:00,
2013-09-04 02:16:00,58.9,58.4,29.88,NNW,335,0.0,0.0,98,0.00,,CLR,0.00,VWS V14.01,2013-09-04 06:16:00,
2013-09-04 02:21:00,59.0,58.5,29.88,NNW,333,0.0,0.0,98,0.00,,CLR,0.00,VWS V14.01,2013-09-04 06:21:00,
2013-09-04 02:26:00,58.8,58.2,29.89,NNW,333,0.0,0.0,98,0.00,,CLR,0.00,VWS V14.01,2013-09-04 06:26:00,
2013-09-04 02:31:00,58.8,58.2,29.89,NNW,333,0.0,0.0,98,0.00,,CLR,0.00,VWS V14.01,2013-09-04 06:31:00,
2013-09-04 02:36:00,58.8,58.2,29.88,NNW,333,0.0,0.0,98,0.00,,CLR,0.00,VWS V14.01,2013-09-04 06:36:00,
2013-09-04 02:41:00,58.8,58.2,29.89,NNW,333,0.0,0.0,98,0.00,,CLR,0.00,VWS V14.01,2013-09-04 06:41:00,
2013-09-04 02:46:00,58.3,57.7,29.89,NNW,332,0.0,0.0,98,0.00,,CLR,0.00,VWS V14.01,2013-09-04 06:46:00,
2013-09-04 02:51:00,58.4,57.8,29.89,NNW,332,0.0,0.0,98,0.00,,CLR,0.00,VWS V14.01,2013-09-04 06:51:00,
2013-09-04 02:56:00,58.3,57.7,29.89,NNW,332,0.0,0.0,98,0.00,,CLR,0.00,VWS V14.01,2013-09-04 06:56:00,
2013-09-04 03:01:00,58.3,57.7,29.89,NNW,332,0.0,0.0,98,0.00,,CLR,0.00,VWS V14.01,2013-09-04 07:01:00,
2013-09-04 03:06:00,58.3,57.7,29.89,NNW,332,0.0,0.0,98,0.00,,CLR,0.00,VWS V14.01,2013-09-04 07:06:00,
2013-09-04 03:11:00,58.4,57.8,29.89,NNW,332,0.0,0.0,98,0.00,,CLR,0.00,VWS V14.01,2013-09-04 07:11:00,
2013-09-04 03:16:00,58.6,0.0,29.89,North,359,0.0,0.0,100,0.00,,CLR,0.00,VWS V14.01,2013-09-04 07:16:00,
2013-09-04 03:21:00,58.6,0.0,29.89,North,359,0.0,0.0,100,0.00,,CLR,0.00,VWS V14.01,2013-09-04 07:21:00,
2013-09-04 03:26:00,58.6,0.0,29.89,North,0,0.0,0.0,100,0.00,,CLR,0.00,VWS V14.01,2013-09-04 07:26:00,
2013-09-04 03:31:00,58.6,0.0,29.89,North,359,0.0,0.0,100,0.00,,CLR,0.00,VWS V14.01,2013-09-04 07:31:00,
2013-09-04 03:36:00,58.6,0.0,29.88,North,359,0.0,0.0,100,0.00,,CLR,0.00,VWS V14.01,2013-09-04 07:36:00,
2013-09-04 03:41:00,58.6,0.0,29.89,North,359,0.0,0.0,100,0.00,,CLR,0.00,VWS V14.01,2013-09-04 07:41:00,
2013-09-04 03:46:00,58.6,0.0,29.89,NNW,330,0.0,0.0,100,0.00,,CLR,0.00,VWS V14.01,2013-09-04 07:46:00,
2013-09-04 03:51:00,58.6,0.0,29.89,NNW,329,0.0,0.0,100,0.00,,CLR,0.00,VWS V14.01,2013-09-04 07:51:00,
2013-09-04 03:56:00,58.6,0.0,29.89,NNW,330,0.0,0.0,100,0.00,,CLR,0.00,VWS V14.01,2013-09-04 07:56:00,
2013-09-04 04:01:00,58.6,0.0,29.89,NNW,329,0.0,0.0,100,0.00,,CLR,0.00,VWS V14.01,2013-09-04 08:01:00,
2013-09-04 04:06:00,58.6,0.0,29.89,NNW,329,0.0,0.0,100,0.00,,CLR,0.00,VWS V14.01,2013-09-04 08:06:00,
2013-09-04 04:11:00,58.6,0.0,29.89,NNW,329,0.0,0.0,100,0.00,,CLR,0.00,VWS V14.01,2013-09-04 08:11:00,
2013-09-04 04:16:00,58.0,57.4,29.89,WSW,237,0.0,0.0,98,0.00,,CLR,0.00,VWS V14.01,2013-09-04 08:16:00,
2013-09-04 04:21:00,58.0,57.4,29.90,SW,236,0.0,1.0,98,0.00,,CLR,0.00,VWS V14.01,2013-09-04 08:21:00,
2013-09-04 04:26:00,58.2,57.6,29.89,SW,236,0.0,0.0,98,0.00,,CLR,0.00,VWS V14.01,2013-09-04 08:26:00,
2013-09-04 04:31:00,58.1,57.5,29.90,SW,236,0.0,0.0,98,0.00,,CLR,0.00,VWS V14.01,2013-09-04 08:31:00,
2013-09-04 04:36:00,57.9,57.0,29.90,SW,236,0.0,0.0,97,0.00,,CLR,0.00,VWS V14.01,2013-09-04 08:36:00,
2013-09-04 04:41:00,57.8,57.2,29.90,SW,236,0.0,0.0,98,0.00,,CLR,0.00,VWS V14.01,2013-09-04 08:41:00,
2013-09-04 04:46:00,58.1,57.2,29.91,SW,236,0.0,0.0,97,0.00,,CLR,0.00,VWS V14.01,2013-09-04 08:46:00,
2013-09-04 04:51:00,58.0,57.2,29.91,WSW,237,0.0,0.0,97,0.00,,CLR,0.00,VWS V14.01,2013-09-04 08:51:00,
2013-09-04 04:56:00,58.0,57.2,29.91,SW,236,0.0,0.0,97,0.00,,CLR,0.00,VWS V14.01,2013-09-04 08:56:00,
2013-09-04 05:01:00,58.0,57.2,29.91,SW,236,0.0,0.0,97,0.00,,CLR,0.00,VWS V14.01,2013-09-04 09:01:00,
2013-09-04 05:06:00,58.3,57.5,29.91,SW,236,0.0,0.0,97,0.00,,CLR,0.00,VWS V14.01,2013-09-04 09:06:00,
2013-09-04 05:11:00,58.0,57.2,29.91,SW,236,0.0,0.0,97,0.00,,CLR,0.00,VWS V14.01,2013-09-04 09:11:00,
2013-09-04 05:16:00,58.3,57.5,29.91,SW,236,0.0,0.0,97,0.00,,CLR,0.00,VWS V14.01,2013-09-04 09:16:00,
2013-09-04 05:21:00,58.2,0.0,29.91,SW,236,0.0,0.0,98,0.00,,CLR,0.00,VWS V14.01,2013-09-04 09:21:00,
2013-09-04 05:26:00,58.2,0.0,29.91,SW,236,0.0,2.0,98,0.00,,CLR,0.00,VWS V14.01,2013-09-04 09:26:00,
2013-09-04 05:31:00,57.5,56.6,29.92,SW,236,0.0,0.0,97,0.00,,CLR,0.00,VWS V14.01,2013-09-04 09:31:00,
2013-09-04 05:36:00,57.8,56.9,29.92,WSW,237,0.0,0.0,97,0.00,,CLR,0.00,VWS V14.01,2013-09-04 09:36:00,
2013-09-04 05:41:00,57.6,57.0,29.91,WSW,237,0.0,0.0,98,0.00,,CLR,0.00,VWS V14.01,2013-09-04 09:41:00,
2013-09-04 05:46:00,58.0,57.4,29.91,WSW,237,0.0,1.0,98,0.00,,CLR,0.00,VWS V14.01,2013-09-04 09:46:00,
2013-09-04 05:51:00,57.9,57.3,29.92,WSW,237,0.0,0.0,98,0.00,,CLR,0.00,VWS V14.01,2013-09-04 09:51:00,
2013-09-04 05:56:00,58.1,57.5,29.92,WSW,237,0.0,0.0,98,0.00,,CLR,0.00,VWS V14.01,2013-09-04 09:56:00,
2013-09-04 06:01:00,58.1,57.5,29.92,West,273,0.0,0.0,98,0.00,,CLR,0.00,VWS V14.01,2013-09-04 10:01:00,
2013-09-04 06:06:00,57.9,57.3,29.92,West,273,0.0,0.0,98,0.00,,CLR,0.00,VWS V14.01,2013-09-04 10:06:00,
2013-09-04 06:11:00,57.9,57.3,29.92,West,272,0.0,0.0,98,0.00,,CLR,0.00,VWS V14.01,2013-09-04 10:11:00,
2013-09-04 06:16:00,58.1,57.5,29.93,West,267,0.0,1.0,98,0.00,,CLR,0.00,VWS V14.01,2013-09-04 10:16:00,
2013-09-04 06:21:00,58.1,57.5,29.93,NW,316,2.0,2.0,98,0.00,,CLR,0.00,VWS V14.01,2013-09-04 10:21:00,
2013-09-04 06:26:00,58.1,57.2,29.93,WNW,296,0.0,1.0,97,0.00,,CLR,0.00,VWS V14.01,2013-09-04 10:26:00,
2013-09-04 06:31:00,58.1,57.5,29.93,WNW,295,0.0,0.0,98,0.00,,CLR,0.00,VWS V14.01,2013-09-04 10:31:00,
2013-09-04 06:36:00,58.0,57.2,29.93,WNW,290,0.0,0.0,97,0.01,,CLR,0.01,VWS V14.01,2013-09-04 10:36:00,
2013-09-04 06:41:00,58.1,57.2,29.94,West,270,0.0,0.0,97,0.01,,CLR,0.01,VWS V14.01,2013-09-04 10:41:00,
2013-09-04 06:46:00,58.0,57.4,29.93,West,270,0.0,0.0,98,0.01,,CLR,0.01,VWS V14.01,2013-09-04 10:46:00,
2013-09-04 06:51:00,58.1,57.2,29.94,West,270,0.0,0.0,97,0.01,,CLR,0.01,VWS V14.01,2013-09-04 10:51:00,
2013-09-04 06:56:00,58.0,57.2,29.94,West,270,0.0,0.0,97,0.01,,CLR,0.01,VWS V14.01,2013-09-04 10:56:00,
2013-09-04 07:01:00,58.6,57.8,29.94,NW,325,0.0,0.0,97,0.01,,CLR,0.01,VWS V14.01,2013-09-04 11:01:00,
2013-09-04 07:06:00,58.7,57.9,29.94,WNW,295,0.0,0.0,97,0.01,,CLR,0.01,VWS V14.01,2013-09-04 11:06:00,
2013-09-04 07:11:00,58.7,57.9,29.94,NW,318,0.0,0.0,97,0.01,,CLR,0.01,VWS V14.01,2013-09-04 11:11:00,
2013-09-04 07:16:00,58.8,57.7,29.95,NW,326,0.0,0.0,96,0.01,,CLR,0.01,VWS V14.01,2013-09-04 11:16:00,
2013-09-04 07:21:00,59.1,58.3,29.94,North,359,0.0,2.0,97,0.01,,CLR,0.01,VWS V14.01,2013-09-04 11:21:00,
2013-09-04 07:26:00,59.0,57.9,29.95,North,359,0.0,0.0,96,0.01,,CLR,0.01,VWS V14.01,2013-09-04 11:26:00,
2013-09-04 07:31:00,58.9,58.1,29.94,North,359,0.0,0.0,97,0.01,,CLR,0.01,VWS V14.01,2013-09-04 11:31:00,
2013-09-04 07:36:00,59.7,58.9,29.95,WSW,257,0.0,0.0,97,0.01,,CLR,0.01,VWS V14.01,2013-09-04 11:36:00,
2013-09-04 07:41:00,59.6,58.8,29.94,WSW,257,0.0,0.0,97,0.01,,CLR,0.01,VWS V14.01,2013-09-04 11:41:00,
2013-09-04 07:46:00,59.7,58.6,29.95,WSW,252,0.0,3.0,96,0.01,,CLR,0.01,VWS V14.01,2013-09-04 11:46:00,
2013-09-04 07:51:00,60.0,59.2,29.95,WSW,251,1.0,3.0,97,0.01,,CLR,0.01,VWS V14.01,2013-09-04 11:51:00,
2013-09-04 07:56:00,60.2,59.1,29.96,SE,141,2.0,2.0,96,0.01,,CLR,0.01,VWS V14.01,2013-09-04 11:56:00,
2013-09-04 08:01:00,60.7,59.2,29.95,SE,135,0.0,3.0,95,0.01,,CLR,0.01,VWS V14.01,2013-09-04 12:01:00,
2013-09-04 08:06:00,61.3,59.8,29.95,SSE,165,2.0,5.0,95,0.00,,CLR,0.01,VWS V14.01,2013-09-04 12:06:00,
2013-09-04 08:11:00,61.4,60.0,29.96,NW,326,0.0,4.0,95,0.00,,CLR,0.01,VWS V14.01,2013-09-04 12:11:00,
2013-09-04 08:16:00,62.0,60.0,29.96,WSW,251,0.0,3.0,93,0.00,,CLR,0.01,VWS V14.01,2013-09-04 12:16:00,
2013-09-04 08:21:00,62.5,60.2,29.96,WSW,246,0.0,1.0,92,0.00,,CLR,0.01,VWS V14.01,2013-09-04 12:21:00,
2013-09-04 08:26:00,63.2,60.6,29.96,WNW,289,0.0,4.0,91,0.00,,CLR,0.01,VWS V14.01,2013-09-04 12:26:00,
2013-09-04 08:31:00,63.5,60.6,29.96,North,358,2.0,4.0,90,0.00,,CLR,0.01,VWS V14.01,2013-09-04 12:31:00,
2013-09-04 08:36:00,63.7,60.4,29.97,NW,310,0.0,3.0,89,0.00,,CLR,0.01,VWS V14.01,2013-09-04 12:36:00,
2013-09-04 08:41:00,64.5,60.8,29.97,North,351,3.0,4.0,88,0.00,,CLR,0.01,VWS V14.01,2013-09-04 12:41:00,
2013-09-04 08:46:00,64.5,60.5,29.97,South,171,0.0,2.0,87,0.00,,CLR,0.01,VWS V14.01,2013-09-04 12:46:00,
2013-09-04 08:51:00,64.9,60.3,29.97,WSW,246,3.0,4.0,85,0.00,,CLR,0.01,VWS V14.01,2013-09-04 12:51:00,
2013-09-04 08:56:00,65.2,60.6,29.97,WSW,248,0.0,3.0,85,0.00,,CLR,0.01,VWS V14.01,2013-09-04 12:56:00,
2013-09-04 09:01:00,65.7,61.1,29.97,SE,124,0.0,1.0,85,0.00,,CLR,0.01,VWS V14.01,2013-09-04 13:01:00,
2013-09-04 09:06:00,65.8,60.8,29.97,SW,222,0.0,3.0,84,0.00,,CLR,0.01,VWS V14.01,2013-09-04 13:06:00,
2013-09-04 09:11:00,66.2,60.6,29.97,North,358,0.0,2.0,82,0.00,,CLR,0.01,VWS V14.01,2013-09-04 13:11:00,
2013-09-04 09:16:00,67.1,61.4,29.97,South,184,1.0,2.0,82,0.00,,CLR,0.01,VWS V14.01,2013-09-04 13:16:00,
2013-09-04 09:21:00,67.1,61.0,29.97,ENE,73,2.0,4.0,81,0.00,,CLR,0.01,VWS V14.01,2013-09-04 13:21:00,
2013-09-04 09:26:00,67.6,61.2,29.97,North,10,1.0,3.0,80,0.00,,CLR,0.01,VWS V14.01,2013-09-04 13:26:00,
2013-09-04 09:31:00,67.7,60.6,29.97,East,80,3.0,3.0,78,0.00,,CLR,0.01,VWS V14.01,2013-09-04 13:31:00,
2013-09-04 09:36:00,68.0,60.9,29.97,SSW,197,0.0,1.0,78,0.00,,CLR,0.01,VWS V14.01,2013-09-04 13:36:00,
2013-09-04 09:41:00,68.4,60.9,29.97,SSE,153,0.0,5.0,77,0.00,,CLR,0.01,VWS V14.01,2013-09-04 13:41:00,
2013-09-04 09:46:00,68.8,61.3,29.97,ESE,120,4.0,4.0,77,0.00,,CLR,0.01,VWS V14.01,2013-09-04 13:46:00,
2013-09-04 09:51:00,69.0,61.1,29.97,SE,128,2.0,2.0,76,0.00,,CLR,0.01,VWS V14.01,2013-09-04 13:51:00,
2013-09-04 09:56:00,69.2,61.0,29.97,SSE,149,2.0,2.0,75,0.00,,CLR,0.01,VWS V14.01,2013-09-04 13:56:00,
2013-09-04 10:01:00,69.3,61.1,29.97,SW,222,3.0,3.0,75,0.00,,CLR,0.01,VWS V14.01,2013-09-04 14:01:00,
2013-09-04 10:06:00,69.5,60.9,29.97,ENE,60,3.0,4.0,74,0.00,,CLR,0.01,VWS V14.01,2013-09-04 14:06:00,
2013-09-04 10:11:00,69.5,60.5,29.97,South,170,1.0,4.0,73,0.00,,CLR,0.01,VWS V14.01,2013-09-04 14:11:00,
2013-09-04 10:16:00,69.9,60.9,29.97,ESE,119,3.0,6.0,73,0.00,,CLR,0.01,VWS V14.01,2013-09-04 14:16:00,
2013-09-04 10:21:00,69.8,60.8,29.97,SE,136,1.0,2.0,73,0.00,,CLR,0.01,VWS V14.01,2013-09-04 14:21:00,
2013-09-04 10:26:00,70.0,60.2,29.97,SE,140,0.0,6.0,71,0.00,,CLR,0.01,VWS V14.01,2013-09-04 14:26:00,
2013-09-04 10:31:00,70.0,59.8,29.97,East,90,6.0,6.0,70,0.00,,CLR,0.01,VWS V14.01,2013-09-04 14:31:00,
2013-09-04 10:36:00,70.2,60.0,29.97,NNE,22,2.0,2.0,70,0.00,,CLR,0.01,VWS V14.01,2013-09-04 14:36:00,
2013-09-04 10:41:00,70.2,59.6,29.97,SSW,199,0.0,3.0,69,0.00,,CLR,0.01,VWS V14.01,2013-09-04 14:41:00,
2013-09-04 10:46:00,70.3,60.1,29.97,NE,50,1.0,5.0,70,0.00,,CLR,0.01,VWS V14.01,2013-09-04 14:46:00,
2013-09-04 10:51:00,70.3,59.3,29.97,SW,219,0.0,3.0,68,0.00,,CLR,0.01,VWS V14.01,2013-09-04 14:51:00,
2013-09-04 10:56:00,70.7,60.4,29.96,SW,223,1.0,2.0,70,0.00,,CLR,0.01,VWS V14.01,2013-09-04 14:56:00,
2013-09-04 11:01:00,70.9,60.2,29.96,South,178,1.0,6.0,69,0.00,,CLR,0.01,VWS V14.01,2013-09-04 15:01:00,
2013-09-04 11:06:00,71.2,60.9,29.96,South,172,3.0,3.0,70,0.00,,FEW035,0.01,VWS V14.01,2013-09-04 15:06:00,
2013-09-04 11:11:00,71.7,61.4,29.96,SE,143,2.0,4.0,70,0.00,,FEW035,0.01,VWS V14.01,2013-09-04 15:11:00,
2013-09-04 11:16:00,72.4,60.8,29.96,NNE,25,2.0,5.0,67,0.00,,FEW035,0.01,VWS V14.01,2013-09-04 15:16:00,
2013-09-04 11:21:00,72.4,60.8,29.97,SSE,148,5.0,7.0,67,0.00,,FEW035,0.01,VWS V14.01,2013-09-04 15:21:00,
2013-09-04 11:26:00,72.4,60.8,29.96,ENE,70,3.0,3.0,67,0.00,,FEW035,0.01,VWS V14.01,2013-09-04 15:26:00,
2013-09-04 11:31:00,72.5,60.9,29.96,South,187,1.0,1.0,67,0.00,,FEW035,0.01,VWS V14.01,2013-09-04 15:31:00,
2013-09-04 11:36:00,70.1,58.2,29.96,NNE,16,2.0,3.0,66,0.00,,FEW035,0.01,VWS V14.01,2013-09-04 15:36:00,
2013-09-04 11:41:00,70.3,58.4,29.96,SSE,161,6.0,6.0,66,0.00,,FEW035,0.01,VWS V14.01,2013-09-04 15:41:00,
2013-09-04 11:46:00,70.7,58.4,29.96,NNE,26,0.0,2.0,65,0.00,,FEW035,0.01,VWS V14.01,2013-09-04 15:46:00,
2013-09-04 11:51:00,71.0,58.7,29.96,SSE,155,0.0,5.0,65,0.00,,FEW035,0.01,VWS V14.01,2013-09-04 15:51:00,
2013-09-04 11:56:00,71.4,58.2,29.96,East,92,5.0,6.0,63,0.00,,FEW035,0.01,VWS V14.01,2013-09-04 15:56:00,
2013-09-04 12:01:00,71.1,58.8,29.96,SE,134,2.0,3.0,65,0.00,,FEW035,0.01,VWS V14.01,2013-09-04 16:01:00,
2013-09-04 12:06:00,71.8,60.3,29.95,ESE,117,4.0,4.0,67,0.00,,FEW035,0.01,VWS V14.01,2013-09-04 16:06:00,
2013-09-04 12:11:00,71.8,59.0,29.96,South,191,2.0,2.0,64,0.00,,FEW035,0.01,VWS V14.01,2013-09-04 16:11:00,
2013-09-04 12:16:00,72.1,58.8,29.95,SE,133,4.0,5.0,63,0.00,,FEW035,0.01,VWS V14.01,2013-09-04 16:16:00,
2013-09-04 12:21:00,72.1,58.8,29.96,SW,222,2.0,3.0,63,0.00,,FEW035,0.01,VWS V14.01,2013-09-04 16:21:00,
2013-09-04 12:26:00,72.1,57.0,29.95,SE,143,2.0,4.0,59,0.00,,FEW035,0.01,VWS V14.01,2013-09-04 16:26:00,
2013-09-04 12:31:00,71.8,56.2,29.95,SE,131,1.0,4.0,58,0.00,,FEW035,0.01,VWS V14.01,2013-09-04 16:31:00,
2013-09-04 12:36:00,72.1,57.9,29.95,SE,128,2.0,5.0,61,0.00,,FEW035,0.01,VWS V14.01,2013-09-04 16:36:00,
2013-09-04 12:41:00,72.5,57.4,29.95,NNE,14,1.0,5.0,59,0.00,,FEW035,0.01,VWS V14.01,2013-09-04 16:41:00,
2013-09-04 12:46:00,72.2,57.1,29.95,SE,141,6.0,8.0,59,0.00,,FEW035,0.01,VWS V14.01,2013-09-04 16:46:00,
2013-09-04 12:51:00,71.6,57.5,29.95,ESE,119,4.0,5.0,61,0.00,,FEW035,0.01,VWS V14.01,2013-09-04 16:51:00,
2013-09-04 12:56:00,72.3,57.2,29.95,SSE,148,5.0,6.0,59,0.00,,FEW035,0.01,VWS V14.01,2013-09-04 16:56:00,
2013-09-04 13:01:00,72.8,58.6,29.95,SE,125,2.0,3.0,61,0.00,,FEW035,0.01,VWS V14.01,2013-09-04 17:01:00,
2013-09-04 13:06:00,73.5,57.3,29.95,SE,143,1.0,2.0,57,0.00,,CLR,0.01,VWS V14.01,2013-09-04 17:06:00,
2013-09-04 13:11:00,74.0,56.8,29.95,SE,143,0.0,2.0,55,0.00,,CLR,0.01,VWS V14.01,2013-09-04 17:11:00,
2013-09-04 13:16:00,73.9,56.7,29.95,SSE,147,4.0,6.0,55,0.00,,CLR,0.01,VWS V14.01,2013-09-04 17:16:00,
2013-09-04 13:21:00,73.0,55.9,29.95,ESE,123,7.0,8.0,55,0.00,,CLR,0.01,VWS V14.01,2013-09-04 17:21:00,
2013-09-04 13:26:00,73.0,56.9,29.95,SE,136,1.0,3.0,57,0.00,,CLR,0.01,VWS V14.01,2013-09-04 17:26:00,
2013-09-04 13:31:00,73.9,56.2,29.95,NE,53,1.0,3.0,54,0.00,,CLR,0.01,VWS V14.01,2013-09-04 17:31:00,
2013-09-04 13:36:00,73.9,55.7,29.95,ESE,121,1.0,2.0,53,0.00,,CLR,0.01,VWS V14.01,2013-09-04 17:36:00,
2013-09-04 13:41:00,73.9,55.7,29.95,South,174,3.0,5.0,53,0.00,,CLR,0.01,VWS V14.01,2013-09-04 17:41:00,
2013-09-04 13:46:00,73.9,56.7,29.95,ESE,112,0.0,3.0,55,0.00,,CLR,0.01,VWS V14.01,2013-09-04 17:46:00,
2013-09-04 13:51:00,74.4,56.2,29.94,ESE,117,0.0,2.0,53,0.00,,CLR,0.01,VWS V14.01,2013-09-04 17:51:00,
2013-09-04 13:56:00,75.2,57.4,29.94,ESE,122,4.0,4.0,54,0.00,,CLR,0.01,VWS V14.01,2013-09-04 17:56:00,
2013-09-04 14:01:00,74.9,56.6,29.95,SE,129,3.0,5.0,53,0.00,,CLR,0.01,VWS V14.01,2013-09-04 18:01:00,
2013-09-04 14:06:00,74.5,55.7,29.95,SE,131,3.0,4.0,52,0.00,,CLR,0.01,VWS V14.01,2013-09-04 18:06:00,
2013-09-04 14:11:00,74.2,55.5,29.95,SE,127,6.0,7.0,52,0.00,,CLR,0.01,VWS V14.01,2013-09-04 18:11:00,
2013-09-04 14:16:00,73.9,56.2,29.95,NNE,32,2.0,5.0,54,0.00,,CLR,0.01,VWS V14.01,2013-09-04 18:16:00,
2013-09-04 14:21:00,74.0,56.3,29.95,SE,131,3.0,6.0,54,0.00,,CLR,0.01,VWS V14.01,2013-09-04 18:21:00,
2013-09-04 14:26:00,74.5,56.8,29.95,SE,144,4.0,4.0,54,0.00,,CLR,0.01,VWS V14.01,2013-09-04 18:26:00,
2013-09-04 14:31:00,74.2,55.5,29.94,SE,136,8.0,8.0,52,0.00,,CLR,0.01,VWS V14.01,2013-09-04 18:31:00,
2013-09-04 14:36:00,74.0,55.8,29.95,SSE,151,4.0,4.0,53,0.00,,CLR,0.01,VWS V14.01,2013-09-04 18:36:00,
2013-09-04 14:41:00,74.5,57.3,29.94,South,175,3.0,5.0,55,0.00,,CLR,0.01,VWS V14.01,2013-09-04 18:41:00,
2013-09-04 14:46:00,74.5,58.8,29.94,SE,138,3.0,4.0,58,0.00,,CLR,0.01,VWS V14.01,2013-09-04 18:46:00,
2013-09-04 14:51:00,74.4,58.7,29.95,SE,141,2.0,6.0,58,0.00,,CLR,0.01,VWS V14.01,2013-09-04 18:51:00,
2013-09-04 14:56:00,74.4,58.7,29.95,SE,143,3.0,6.0,58,0.00,,CLR,0.01,VWS V14.01,2013-09-04 18:56:00,
2013-09-04 15:01:00,74.4,57.7,29.94,East,93,2.0,7.0,56,0.00,,CLR,0.01,VWS V14.01,2013-09-04 19:01:00,
2013-09-04 15:06:00,74.4,58.7,29.94,SE,142,3.0,7.0,58,0.00,,CLR,0.01,VWS V14.01,2013-09-04 19:06:00,
2013-09-04 15:11:00,74.2,58.5,29.94,SE,133,6.0,11.0,58,0.00,,CLR,0.01,VWS V14.01,2013-09-04 19:11:00,
2013-09-04 15:16:00,73.9,58.7,29.94,SSE,162,5.0,6.0,59,0.00,,CLR,0.01,VWS V14.01,2013-09-04 19:16:00,
2013-09-04 15:21:00,73.7,58.5,29.94,SE,127,4.0,9.0,59,0.00,,CLR,0.01,VWS V14.01,2013-09-04 19:21:00,
2013-09-04 15:26:00,73.0,57.8,29.94,SE,134,7.0,8.0,59,0.00,,CLR,0.01,VWS V14.01,2013-09-04 19:26:00,
2013-09-04 15:30:00,73.2,58.0,29.95,SSE,151,2.0,6.0,59,0.00,,CLR,0.01,VWS V14.01,2013-09-04 19:30:00,
2013-09-04 15:35:00,73.7,59.0,29.94,SE,144,7.0,7.0,60,0.00,,CLR,0.01,VWS V14.01,2013-09-04 19:35:00,
2013-09-04 15:40:00,73.4,57.7,29.94,SE,145,9.0,9.0,58,0.00,,CLR,0.01,VWS V14.01,2013-09-04 19:40:00,
2013-09-04 15:45:00,72.9,57.8,29.94,SE,142,1.0,7.0,59,0.00,,CLR,0.01,VWS V14.01,2013-09-04 19:45:00,
2013-09-04 15:50:00,73.0,58.3,29.94,SE,138,5.0,5.0,60,0.00,,CLR,0.01,VWS V14.01,2013-09-04 19:50:00,
2013-09-04 15:55:00,73.2,57.5,29.94,SE,130,3.0,6.0,58,0.00,,CLR,0.01,VWS V14.01,2013-09-04 19:55:00,
2013-09-04 16:11:00,72.5,56.4,29.94,SE,145,4.0,4.0,57,0.00,,CLR,0.01,VWS V14.01,2013-09-04 20:11:00,
2013-09-04 16:16:00,72.5,56.4,29.94,SSE,161,4.0,5.0,57,0.00,,CLR,0.01,VWS V14.01,2013-09-04 20:16:00,
2013-09-04 16:21:00,72.8,56.2,29.94,SSE,154,4.0,8.0,56,0.00,,CLR,0.01,VWS V14.01,2013-09-04 20:21:00,
2013-09-04 16:26:00,72.7,56.6,29.94,SW,214,4.0,6.0,57,0.00,,CLR,0.01,VWS V14.01,2013-09-04 20:26:00,
2013-09-04 16:31:00,72.5,56.4,29.94,SSE,153,5.0,8.0,57,0.00,,CLR,0.01,VWS V14.01,2013-09-04 20:31:00,
2013-09-04 16:36:00,72.5,56.4,29.94,South,184,1.0,9.0,57,0.00,,CLR,0.01,VWS V14.01,2013-09-04 20:36:00,
2013-09-04 16:41:00,72.7,55.6,29.94,South,188,3.0,6.0,55,0.00,,CLR,0.01,VWS V14.01,2013-09-04 20:41:00,
2013-09-04 16:46:00,72.9,55.8,29.94,SSW,194,7.0,7.0,55,0.00,,CLR,0.01,VWS V14.01,2013-09-04 20:46:00,
2013-09-04 16:51:00,72.7,55.1,29.94,SSW,213,6.0,6.0,54,0.00,,CLR,0.01,VWS V14.01,2013-09-04 20:51:00,
2013-09-04 16:56:00,72.9,55.8,29.94,South,180,2.0,4.0,55,0.00,,CLR,0.01,VWS V14.01,2013-09-04 20:56:00,
2013-09-04 17:01:00,72.9,55.3,29.94,South,187,5.0,6.0,54,0.00,,CLR,0.01,VWS V14.01,2013-09-04 21:01:00,
2013-09-04 17:06:00,72.9,55.3,29.94,South,175,5.0,6.0,54,0.00,,CLR,0.01,VWS V14.01,2013-09-04 21:06:00,
2013-09-04 17:11:00,72.7,56.1,29.94,South,188,3.0,5.0,56,0.00,,CLR,0.01,VWS V14.01,2013-09-04 21:11:00,
2013-09-04 17:16:00,72.7,56.6,29.94,SW,228,2.0,6.0,57,0.00,,CLR,0.01,VWS V14.01,2013-09-04 21:16:00,
2013-09-04 17:21:00,72.6,55.5,29.94,SSW,210,1.0,5.0,55,0.00,,CLR,0.01,VWS V14.01,2013-09-04 21:21:00,
2013-09-04 17:26:00,72.6,56.5,29.93,SSW,194,3.0,5.0,57,0.00,,CLR,0.01,VWS V14.01,2013-09-04 21:26:00,
2013-09-04 17:31:00,72.4,56.3,29.94,SE,141,5.0,8.0,57,0.00,,CLR,0.01,VWS V14.01,2013-09-04 21:31:00,
2013-09-04 17:36:00,72.2,57.1,29.94,SE,140,1.0,3.0,59,0.00,,CLR,0.01,VWS V14.01,2013-09-04 21:36:00,
2013-09-04 17:41:00,72.0,56.9,29.94,SSE,155,0.0,3.0,59,0.00,,CLR,0.01,VWS V14.01,2013-09-04 21:41:00,
2013-09-04 17:46:00,72.0,57.8,29.93,SSW,205,2.0,5.0,61,0.00,,CLR,0.01,VWS V14.01,2013-09-04 21:46:00,
2013-09-04 17:51:00,71.9,57.7,29.94,SSW,198,1.0,2.0,61,0.00,,CLR,0.01,VWS V14.01,2013-09-04 21:51:00,
2013-09-04 17:56:00,71.9,58.2,29.93,SSE,159,0.0,2.0,62,0.00,,CLR,0.01,VWS V14.01,2013-09-04 21:56:00,
2013-09-04 18:01:00,71.7,58.5,29.93,SSE,158,1.0,3.0,63,0.00,,CLR,0.01,VWS V14.01,2013-09-04 22:01:00,
2013-09-04 18:06:00,71.4,58.2,29.93,SSE,165,1.0,3.0,63,0.00,,CLR,0.01,VWS V14.01,2013-09-04 22:06:00,
2013-09-04 18:11:00,70.9,58.6,29.93,WSW,241,0.0,2.0,65,0.00,,CLR,0.01,VWS V14.01,2013-09-04 22:11:00,
2013-09-04 18:16:00,70.5,58.6,29.93,SW,218,1.0,3.0,66,0.00,,CLR,0.01,VWS V14.01,2013-09-04 22:16:00,
2013-09-04 18:21:00,70.4,58.9,29.92,SW,217,1.0,1.0,67,0.00,,CLR,0.01,VWS V14.01,2013-09-04 22:21:00,
2013-09-04 18:26:00,70.2,59.6,29.92,SW,218,0.0,0.0,69,0.00,,CLR,0.01,VWS V14.01,2013-09-04 22:26:00,
2013-09-04 18:31:00,70.3,60.1,29.92,SW,217,0.0,0.0,70,0.00,,CLR,0.01,VWS V14.01,2013-09-04 22:31:00,
2013-09-04 18:36:00,69.9,60.5,29.92,SW,216,0.0,0.0,72,0.00,,CLR,0.01,VWS V14.01,2013-09-04 22:36:00,
2013-09-04 18:41:00,69.5,60.5,29.93,ESE,122,0.0,0.0,73,0.00,,CLR,0.01,VWS V14.01,2013-09-04 22:41:00,
2013-09-04 18:46:00,69.0,61.1,29.93,SSE,150,0.0,0.0,76,0.00,,CLR,0.01,VWS V14.01,2013-09-04 22:46:00,
2013-09-04 18:51:00,68.6,61.1,29.93,SSE,155,0.0,0.0,77,0.00,,CLR,0.01,VWS V14.01,2013-09-04 22:51:00,
2013-09-04 18:56:00,68.1,61.0,29.93,SSE,150,0.0,1.0,78,0.00,,CLR,0.01,VWS V14.01,2013-09-04 22:56:00,
2013-09-04 19:01:00,67.7,59.9,29.93,SSE,152,0.0,0.0,76,0.00,,CLR,0.01,VWS V14.01,2013-09-04 23:01:00,
2013-09-04 19:06:00,67.5,60.0,29.92,SE,144,0.0,0.0,77,0.00,,FEW250,0.01,VWS V14.01,2013-09-04 23:06:00,
2013-09-04 19:11:00,67.2,60.1,29.92,ENE,57,0.0,0.0,78,0.00,,FEW250,0.01,VWS V14.01,2013-09-04 23:11:00,
2013-09-04 19:16:00,66.9,60.2,29.93,SE,140,0.0,0.0,79,0.00,,FEW250,0.01,VWS V14.01,2013-09-04 23:16:00,
2013-09-04 19:21:00,66.3,60.0,29.92,SW,218,0.0,0.0,80,0.00,,FEW250,0.01,VWS V14.01,2013-09-04 23:21:00,
2013-09-04 19:26:00,65.9,59.2,29.93,SW,218,0.0,0.0,79,0.00,,FEW250,0.01,VWS V14.01,2013-09-04 23:26:00,
2013-09-04 19:31:00,65.6,58.9,29.93,SW,218,0.0,0.0,79,0.00,,FEW250,0.01,VWS V14.01,2013-09-04 23:31:00,
2013-09-04 19:36:00,65.3,59.0,29.93,SW,218,0.0,0.0,80,0.00,,FEW250,0.01,VWS V14.01,2013-09-04 23:36:00,
2013-09-04 19:41:00,65.1,59.1,29.93,SW,218,0.0,0.0,81,0.00,,FEW250,0.01,VWS V14.01,2013-09-04 23:41:00,
2013-09-04 19:46:00,64.9,59.3,29.93,SW,218,0.0,0.0,82,0.00,,FEW250,0.01,VWS V14.01,2013-09-04 23:46:00,
2013-09-04 19:51:00,64.8,59.5,29.93,SW,218,0.0,1.0,83,0.00,,FEW250,0.01,VWS V14.01,2013-09-04 23:51:00,
2013-09-04 19:56:00,64.5,59.6,29.93,SW,217,0.0,0.0,84,0.00,,FEW250,0.01,VWS V14.01,2013-09-04 23:56:00,
2013-09-04 20:01:00,64.3,59.4,29.93,SW,217,0.0,0.0,84,0.00,,FEW250,0.01,VWS V14.01,2013-09-05 00:01:00,
2013-09-04 20:06:00,64.3,59.7,29.94,SW,217,0.0,0.0,85,0.00,,FEW250,0.01,VWS V14.01,2013-09-05 00:06:00,
2013-09-04 20:11:00,64.1,59.5,29.94,SW,217,0.0,1.0,85,0.00,,FEW250,0.01,VWS V14.01,2013-09-05 00:11:00,
2013-09-04 20:16:00,64.0,59.4,29.94,SW,217,0.0,0.0,85,0.00,,FEW250,0.01,VWS V14.01,2013-09-05 00:16:00,
2013-09-04 20:21:00,64.0,59.1,29.94,SW,217,0.0,0.0,84,0.00,,FEW250,0.01,VWS V14.01,2013-09-05 00:21:00,
2013-09-04 20:26:00,64.2,59.3,29.94,SW,216,0.0,0.0,84,0.00,,FEW250,0.01,VWS V14.01,2013-09-05 00:26:00,
2013-09-04 20:31:00,64.3,59.4,29.94,SW,216,0.0,0.0,84,0.00,,FEW250,0.01,VWS V14.01,2013-09-05 00:31:00,
2013-09-04 20:36:00,64.3,59.4,29.94,SW,215,0.0,0.0,84,0.00,,FEW250,0.01,VWS V14.01,2013-09-05 00:36:00,
2013-09-04 20:41:00,64.3,59.0,29.94,SSW,213,0.0,0.0,83,0.00,,FEW250,0.01,VWS V14.01,2013-09-05 00:41:00,
2013-09-04 20:46:00,64.2,58.6,29.94,SW,218,0.0,0.0,82,0.00,,FEW250,0.01,VWS V14.01,2013-09-05 00:46:00,
2013-09-04 20:51:00,64.1,58.8,29.95,SW,218,0.0,0.0,83,0.00,,FEW250,0.01,VWS V14.01,2013-09-05 00:51:00,
2013-09-04 20:58:00,64.0,58.7,29.95,SW,218,0.0,0.0,83,0.00,,FEW250,0.01,VWS V14.01,2013-09-05 00:58:00,
2013-09-04 21:03:00,64.0,59.1,29.95,SW,218,0.0,0.0,84,0.00,,FEW250,0.01,VWS V14.01,2013-09-05 01:03:00,
2013-09-04 21:08:00,63.8,58.9,29.95,SW,218,0.0,0.0,84,0.00,,FEW250,0.01,VWS V14.01,2013-09-05 01:08:00,
2013-09-04 21:13:00,63.5,58.9,29.94,SW,218,0.0,0.0,85,0.00,,FEW250,0.01,VWS V14.01,2013-09-05 01:13:00,
2013-09-04 21:18:00,63.0,59.1,29.94,SW,218,0.0,0.0,87,0.00,,FEW250,0.01,VWS V14.01,2013-09-05 01:18:00,
2013-09-04 21:23:00,62.7,59.1,29.95,SW,217,0.0,0.0,88,0.00,,FEW250,0.01,VWS V14.01,2013-09-05 01:23:00,
2013-09-04 21:28:00,62.4,58.8,29.95,SW,217,0.0,0.0,88,0.00,,FEW250,0.01,VWS V14.01,2013-09-05 01:28:00,
2013-09-04 21:33:00,62.4,58.5,29.95,SW,217,0.0,0.0,87,0.00,,FEW250,0.01,VWS V14.01,2013-09-05 01:33:00,
2013-09-04 21:38:00,62.4,58.5,29.95,SW,217,0.0,0.0,87,0.00,,FEW250,0.01,VWS V14.01,2013-09-05 01:38:00,
2013-09-04 21:43:00,62.6,58.7,29.95,SW,217,0.0,0.0,87,0.00,,FEW250,0.01,VWS V14.01,2013-09-05 01:43:00,
2013-09-04 21:48:00,62.6,58.7,29.95,SW,217,0.0,0.0,87,0.00,,FEW250,0.01,VWS V14.01,2013-09-05 01:48:00,
2013-09-04 21:53:00,62.4,58.5,29.96,SW,217,0.0,0.0,87,0.00,,FEW250,0.01,VWS V14.01,2013-09-05 01:53:00,
2013-09-04 21:58:00,62.3,58.7,29.96,SW,217,0.0,0.0,88,0.00,,FEW250,0.01,VWS V14.01,2013-09-05 01:58:00,
2013-09-04 22:03:00,62.2,59.2,29.96,SW,217,0.0,1.0,90,0.00,,CLR,0.01,VWS V14.01,2013-09-05 02:03:00,
2013-09-04 22:08:00,61.9,58.9,29.96,SW,217,0.0,0.0,90,0.00,,CLR,0.01,VWS V14.01,2013-09-05 02:08:00,
2013-09-04 22:13:00,61.9,58.6,29.96,SW,217,0.0,0.0,89,0.00,,CLR,0.01,VWS V14.01,2013-09-05 02:13:00,
2013-09-04 22:18:00,61.8,58.5,29.96,SW,216,0.0,0.0,89,0.00,,CLR,0.01,VWS V14.01,2013-09-05 02:18:00,
2013-09-04 22:23:00,61.8,58.5,29.96,SW,216,0.0,0.0,89,0.00,,CLR,0.01,VWS V14.01,2013-09-05 02:23:00,
2013-09-04 22:28:00,61.6,58.3,29.96,SW,215,0.0,0.0,89,0.00,,CLR,0.01,VWS V14.01,2013-09-05 02:28:00,
2013-09-04 22:33:00,61.5,58.2,29.96,SW,215,0.0,0.0,89,0.00,,CLR,0.01,VWS V14.01,2013-09-05 02:33:00,
2013-09-04 22:38:00,61.5,58.2,29.96,SW,215,0.0,0.0,89,0.00,,CLR,0.01,VWS V14.01,2013-09-05 02:38:00,
2013-09-04 22:43:00,61.5,58.2,29.96,SSW,213,0.0,0.0,89,0.00,,CLR,0.01,VWS V14.01,2013-09-05 02:43:00,
2013-09-04 22:48:00,61.5,58.2,29.96,SSW,210,0.0,0.0,89,0.00,,CLR,0.01,VWS V14.01,2013-09-05 02:48:00,
2013-09-04 22:53:00,61.3,58.0,29.96,SSW,205,0.0,0.0,89,0.00,,CLR,0.01,VWS V14.01,2013-09-05 02:53:00,
2013-09-04 22:58:00,61.3,58.3,29.96,SSW,196,0.0,0.0,90,0.00,,CLR,0.01,VWS V14.01,2013-09-05 02:58:00,
2013-09-04 23:03:00,61.2,58.2,29.96,SW,216,0.0,0.0,90,0.00,,CLR,0.01,VWS V14.01,2013-09-05 03:03:00,
2013-09-04 23:08:00,60.9,58.0,29.96,SW,216,0.0,0.0,90,0.00,,CLR,0.01,VWS V14.01,2013-09-05 03:08:00,
2013-09-04 23:13:00,60.7,58.1,29.96,SW,215,0.0,0.0,91,0.00,,CLR,0.01,VWS V14.01,2013-09-05 03:13:00,
2013-09-04 23:18:00,60.4,57.8,29.96,SW,215,0.0,0.0,91,0.00,,CLR,0.01,VWS V14.01,2013-09-05 03:18:00,
2013-09-04 23:23:00,60.2,57.9,29.96,SW,215,0.0,0.0,92,0.00,,CLR,0.01,VWS V14.01,2013-09-05 03:23:00,
2013-09-04 23:28:00,60.1,58.1,29.96,SW,215,0.0,0.0,93,0.00,,CLR,0.01,VWS V14.01,2013-09-05 03:28:00,
2013-09-04 23:33:00,59.9,57.9,29.96,SW,215,0.0,0.0,93,0.00,,CLR,0.01,VWS V14.01,2013-09-05 03:33:00,
2013-09-04 23:38:00,59.9,57.9,29.96,SW,215,0.0,0.0,93,0.00,,CLR,0.01,VWS V14.01,2013-09-05 03:38:00,
2013-09-04 23:43:00,59.8,57.8,29.96,SW,215,0.0,0.0,93,0.00,,CLR,0.01,VWS V14.01,2013-09-05 03:43:00,
2013-09-04 23:48:00,59.8,57.8,29.96,SW,215,0.0,0.0,93,0.00,,CLR,0.01,VWS V14.01,2013-09-05 03:48:00,
2013-09-04 23:53:00,59.8,57.8,29.96,SW,215,0.0,0.0,93,0.00,,CLR,0.01,VWS V14.01,2013-09-05 03:53:00,
2013-09-04 23:58:00,59.8,57.8,29.96,SW,215,0.0,0.0,93,0.00,,CLR,0.01,VWS V14.01,2013-09-05 03:58:00,